Location: Esp�s Alto
(42.4476°N, 0.5876°E)
Time: 14:47:26
(UTC+00:00)

USA 267 - Pass Details

Date: 22 October 2019
Orbit: 1101 x 1106 km, 123.0° (Epoch: 12 November)

Event Time Altitude Azimuth Distance (km) Brightness Sun altitude
Rises 02:58:53 0° 48° (NE) 3,925 7.0 -37.0°
Reaches altitude 10° 03:01:22 10° 50° (NE) 2,965 6.2 -36.6°
Enters shadow 03:06:49 63° 70° (ENE) 1,219 3.5 -35.6°
